Flag for Estonia Weather past 2 weeks in Tallinn, Estonia

Now
68 °F

Passing clouds.


Feels Like: 68 °F
Forecast: 57 / 73 °F
Wind: 7 mph from North

Location: Tallinn

Current Time: Aug 4, 2015 at 3:31:01 PM

Latest Report: Aug 4, 2015 at 2:50 PM


Visibility: N/A

Pressure: 30.21 "Hg

Humidity: 49%

Dew point: 48 °F

Location of TallinnLocation

Historic Weather in Tallinn — Graph

°F

Tallinn temperature yesterday

Maximum temperature yesterday: 66 °F (at 11:50 AM)
Minimum temperature yesterday: 54 °F (at 4:50 AM)
Average temperature yesterday: 60 °F

Past Weeks' High & Low Weather Summary

 TemperatureHumidityPressure
High72 °F (Jul 26, 3:50 PM)100% (Jul 22, 7:20 AM)30.21 "Hg (Jul 22, 7:20 AM)
Low45 °F (Jul 28, 3:50 AM)43% (Jul 27, 5:20 PM)29.47 "Hg (Jul 30, 9:20 AM)
Average60 °F79%29.75 "Hg
* Reported Jul 20 2:20 PM — Aug 4 2:20 PM, Tallinn, Weather by CustomWeather, © 2015

Note: Actual official high and low records may vary slightly from our data, if they occured in-between our weather recording intervals... More about our weather records

Advertising

Tallinn weather history for previous 24 hours

 ConditionsComfort  
Time TempWeatherWind HumidityBarometerVisibility
2:20 PM
Tue, Aug 4
68 °FPassing clouds.7 mph49%30.21 "HgN/A
1:50 PM68 °FPassing clouds.6 mph53%30.21 "HgN/A
1:20 PM68 °FPassing clouds.6 mph53%30.21 "HgN/A
12:50 PM66 °FPassing clouds.5 mph49%30.21 "HgN/A
12:20 PM66 °FPassing clouds.5 mph46%30.21 "HgN/A
11:50 AM66 °FPassing clouds.6 mph46%30.21 "HgN/A
11:20 AM64 °FPassing clouds.6 mph49%30.21 "HgN/A
10:50 AM63 °FPassing clouds.3 mph56%30.21 "HgN/A
10:20 AM63 °FPassing clouds.6 mph59%30.21 "HgN/A
9:50 AM63 °FPassing clouds.5 mph64%30.21 "HgN/A
9:20 AM61 °FPassing clouds.5 mph72%30.21 "HgN/A
8:50 AM61 °FPassing clouds.5 mph77%30.21 "HgN/A
8:20 AM59 °FPassing clouds.6 mph82%30.21 "HgN/A
7:50 AM59 °FPassing clouds.No wind82%30.21 "HgN/A
7:20 AM55 °FPassing clouds.No wind88%30.21 "HgN/A
6:50 AM52 °FPassing clouds.No wind94%30.18 "HgN/A
6:20 AM48 °FLight fog.2 mph100%30.18 "HgN/A
5:50 AM50 °FLight fog.No wind88%30.18 "HgN/A
5:20 AM55 °FLight fog.No wind94%30.18 "HgN/A
4:50 AM54 °FLight fog.5 mph94%30.18 "HgN/A
4:20 AM54 °FPassing clouds.5 mph94%30.18 "HgN/A
3:50 AM54 °FPassing clouds.3 mph94%30.18 "HgN/A
3:20 AM55 °FClear.No wind94%30.18 "Hg10 mi
2:50 AM55 °FClear.No wind94%30.18 "Hg10 mi
2:20 AM55 °FClear.2 mph94%30.18 "Hg10 mi
1:50 AM55 °FClear.5 mph94%30.18 "Hg10 mi
1:20 AM55 °FClear.6 mph94%30.18 "Hg10 mi
12:50 AM55 °FClear.5 mph94%30.18 "Hg10 mi
12:20 AM55 °FClear.6 mph94%30.15 "Hg10 mi
11:50 PM
Mon, Aug 3
57 °FClear.6 mph88%30.15 "Hg10 mi
11:20 PM55 °FClear.8 mph94%30.15 "Hg10 mi
10:50 PM57 °FClear.9 mph94%30.15 "Hg10 mi
10:20 PM59 °FSunny.9 mph88%30.15 "Hg10 mi
9:50 PM59 °FSunny.10 mph88%30.15 "Hg10 mi
9:20 PM59 °FSunny.10 mph88%30.12 "Hg10 mi
8:50 PM61 °FSunny.12 mph77%30.12 "Hg10 mi
8:20 PM63 °FSunny.13 mph73%30.12 "Hg10 mi
7:50 PM63 °FSunny.15 mph73%30.12 "Hg10 mi
7:20 PM64 °FSunny.15 mph64%30.12 "Hg10 mi
6:50 PM64 °FSunny.15 mph64%30.12 "Hg10 mi
6:20 PM66 °FSunny.14 mph64%30.12 "Hg10 mi
5:50 PM66 °FSunny.14 mph60%30.12 "Hg10 mi
5:20 PM66 °FPassing clouds.15 mph60%30.12 "HgN/A
4:50 PM66 °FPassing clouds.17 mph60%30.12 "HgN/A
4:20 PM66 °FPassing clouds.17 mph60%30.12 "HgN/A
3:20 PM66 °FPassing clouds.17 mph56%30.09 "HgN/A
Weather by CustomWeather, © 2015

See weather overviewHow to use our weather pages